EUTELSAT HOT BIRD 13E

Last updated on Mon Jun 14 2021 03:03:51 GMT+0000 (Coordinated Universal Time)

1 28946U 06007B 21164.25526933 .00000098 00000-0 00000-0 0 9998 2 28946 0.0188 143.0034 0005152 333.9863 249.6899 1.00272459 55952
UTC large
Height (km)
Speed (km/s)
/
Latitude / Longitude
Inclination (degrees)
Orbital Period (minutes)
Azimuth
Elevation
Range (km)
Doppler Factor

Next 0 passes for location: London (51.5072 / 0.1276)

Sorry there are no passes over London.